Location: Newark
(34.6283°N, 36.0776°E)
Time: 08:56:03
(UTC+00:00)

Tiros 1 despin weight - Pass Details

Date: 21 September 2019
Orbit: 593 x 643 km, 48.2° (Epoch: 19 October)

Event Time Altitude Azimuth Distance (km) Brightness Sun altitude
Rises 07:34:25 0° 196° (SSW) 2,902 ? 46.9°
Reaches altitude 10° 07:37:12 10° 180° (S) 1,990 ? 47.3°
Maximum altitude 07:40:36 21° 132° (SE) 1,407 ? 47.8°
Drops below altitude 10° 07:43:59 10° 83° (E) 1,974 ? 48.2°
Sets 07:46:44 0° 67° (ENE) 2,872 ? 48.6°
